AAL541 KMCO-KJFK

Flight info

Callsign AAL541
Flight time N/A
Altitude 37000
Route FATHE4 VIYAP Q87 JROSS JOHAR Q109 DFENC SAWED Q108 SIE CAMRN5
Aircraft B77W/H-SDE1E2E3FGHIJ2J3J4J5M1RWXY/LB1D1

Departure

Time N/A
Airport Orlando International Airport (KMCO)

Arrival

Time 2026-05-05 05:03
Airport John F. Kennedy International Airport (KJFK)
Time Latitude Longitude Altitude Speed Heading
2026-05-05 04:50 40.53643 -73.91937 8003 ft 296 kts 344°
2026-05-05 04:51 40.55657 -73.92386 7799 ft 290 kts 347°
2026-05-05 04:51 40.57606 -73.92757 7592 ft 285 kts 349°
2026-05-05 04:51 40.59540 -73.93144 7375 ft 279 kts 347°
2026-05-05 04:51 40.61448 -73.93492 7175 ft 274 kts 347°
2026-05-05 04:52 40.63323 -73.93821 6964 ft 269 kts 347°
2026-05-05 04:52 40.65176 -73.94139 6770 ft 271 kts 347°
2026-05-05 04:52 40.67056 -73.94457 6597 ft 273 kts 347°
2026-05-05 04:52 40.68943 -73.94773 6409 ft 273 kts 347°
2026-05-05 04:53 40.70651 -73.95056 6221 ft 272 kts 347°
2026-05-05 04:53 40.72554 -73.95244 5989 ft 278 kts
2026-05-05 04:53 40.74450 -73.94460 5783 ft 291 kts 25°
2026-05-05 04:53 40.76157 -73.93040 5615 ft 290 kts 31°
2026-05-05 04:54 40.77833 -73.91557 5270 ft 291 kts 30°
2026-05-05 04:54 40.79514 -73.90125 4951 ft 278 kts 29°
2026-05-05 04:54 40.81066 -73.88793 4952 ft 257 kts 29°
2026-05-05 04:54 40.82528 -73.87530 4971 ft 253 kts 30°
2026-05-05 04:55 40.83995 -73.86265 5004 ft 254 kts 29°
2026-05-05 04:55 40.85490 -73.84962 4808 ft 260 kts 33°
2026-05-05 04:55 40.86696 -73.83188 4513 ft 262 kts 64°
2026-05-05 04:55 40.87105 -73.80901 4253 ft 253 kts 97°
2026-05-05 04:56 40.86661 -73.78753 4019 ft 236 kts 123°
2026-05-05 04:56 40.85915 -73.76854 3789 ft 231 kts 125°
2026-05-05 04:56 40.85182 -73.74985 3533 ft 228 kts 125°
2026-05-05 04:56 40.84462 -73.73140 3285 ft 224 kts 125°
2026-05-05 04:57 40.83757 -73.71318 3061 ft 220 kts 125°
2026-05-05 04:57 40.82970 -73.69727 2974 ft 196 kts 138°
2026-05-05 04:57 40.82134 -73.68310 2973 ft 196 kts 137°
2026-05-05 04:57 40.81305 -73.66890 2965 ft 195 kts 137°
2026-05-05 04:58 40.80464 -73.65507 2958 ft 187 kts 146°
2026-05-05 04:58 40.79379 -73.64840 2979 ft 172 kts 186°
2026-05-05 04:58 40.78261 -73.65235 2997 ft 167 kts 207°
2026-05-05 04:58 40.77196 -73.65852 2846 ft 167 kts 208°
2026-05-05 04:59 40.76162 -73.66464 2633 ft 158 kts 210°
2026-05-05 04:59 40.75215 -73.67120 2440 ft 151 kts 213°
2026-05-05 04:59 40.74294 -73.67824 2249 ft 153 kts 213°
2026-05-05 04:59 40.73419 -73.68504 2061 ft 137 kts 213°
2026-05-05 05:00 40.72651 -73.69107 1871 ft 120 kts 213°
2026-05-05 05:00 40.71939 -73.69667 1749 ft 122 kts 213°
2026-05-05 05:00 40.71220 -73.70232 1550 ft 117 kts 213°
2026-05-05 05:00 40.70515 -73.70789 1423 ft 121 kts 212°
2026-05-05 05:01 40.69779 -73.71367 1242 ft 126 kts 212°
2026-05-05 05:01 40.69027 -73.71956 1084 ft 126 kts 211°
2026-05-05 05:01 40.68260 -73.72558 902 ft 132 kts 211°
2026-05-05 05:01 40.67458 -73.73190 694 ft 135 kts 209°
2026-05-05 05:02 40.66648 -73.73822 537 ft 135 kts 209°
2026-05-05 05:02 40.65838 -73.74456 355 ft 137 kts 208°
2026-05-05 05:02 40.65015 -73.75102 184 ft 137 kts 209°
2026-05-05 05:02 40.64203 -73.75739 43 ft 132 kts 209°
2026-05-05 05:03 40.63488 -73.76295 29 ft 101 kts 211°
2026-05-05 05:03 40.63054 -73.76643 29 ft 41 kts 222°
2026-05-05 05:03 40.62943 -73.76868 29 ft 16 kts 243°
2026-05-05 05:03 40.62949 -73.77004 31 ft 16 kts 299°
2026-05-05 05:04 40.63001 -73.77125 28 ft 15 kts 300°
2026-05-05 05:04 40.63054 -73.77245 32 ft 15 kts 301°
2026-05-05 05:04 40.63108 -73.77365 30 ft 15 kts 301°
2026-05-05 05:04 40.63163 -73.77485 27 ft 15 kts 301°
2026-05-05 05:05 40.63228 -73.77626 28 ft 25 kts 301°
2026-05-05 05:05 40.63307 -73.77802 28 ft 19 kts 301°
2026-05-05 05:05 40.63383 -73.77913 30 ft 10 kts 353°
2026-05-05 05:05 40.63472 -73.77855 26 ft 19 kts 31°
2026-05-05 05:06 40.63545 -73.77825 26 ft 8 kts 327°
2026-05-05 05:06 40.63594 -73.77871 29 ft 9 kts 327°
2026-05-05 05:06 40.63654 -73.77896 30 ft 10 kts 354°
2026-05-05 05:06 40.63722 -73.77905 28 ft 10 kts 353°
2026-05-05 05:07 40.63797 -73.77918 27 ft 11 kts 353°